JAL3114 RJCC-RJGG

Flight info

Callsign JAL3114
Flight time N/A
Altitude 36000
Route DALBI Y120 TAPPI Y12 MBE Y121 SWING
Aircraft B738/M-SDE2E3FGHIRWXY/LB1

Departure

Time N/A
Airport New Chitose Airport (RJCC)

Arrival

Time 2026-05-01 15:31
Airport Chubu Centrair International Airport (RJGG)
Time Latitude Longitude Altitude Speed Heading
2026-05-01 14:56 36.81014 138.34655 35537 ft 381 kts 206°
2026-05-01 14:56 36.78670 138.33112 35531 ft 381 kts 206°
2026-05-01 14:57 36.74042 138.30067 35507 ft 379 kts 206°
2026-05-01 14:57 36.67110 138.25506 35521 ft 371 kts 206°
2026-05-01 14:58 36.62554 138.22518 35532 ft 370 kts 206°
2026-05-01 14:58 36.57927 138.19484 35567 ft 379 kts 206°
2026-05-01 14:59 36.53244 138.16394 35515 ft 382 kts 206°
2026-05-01 14:59 36.48545 138.13365 35494 ft 379 kts 206°
2026-05-01 15:00 36.41609 138.08825 35507 ft 374 kts 206°
2026-05-01 15:01 36.37008 138.05842 35514 ft 371 kts 206°
2026-05-01 15:01 36.32453 138.02890 35515 ft 373 kts 206°
2026-05-01 15:02 36.27823 137.99901 35533 ft 378 kts 207°
2026-05-01 15:02 36.23114 137.96854 35496 ft 384 kts 207°
2026-05-01 15:03 36.18389 137.93801 35492 ft 381 kts 207°
2026-05-01 15:03 36.13818 137.90509 35498 ft 380 kts 213°
2026-05-01 15:04 36.09529 137.86733 35501 ft 379 kts 213°
2026-05-01 15:04 36.07359 137.84853 35034 ft 384 kts 211°
2026-05-01 15:04 36.05117 137.83090 34483 ft 381 kts 212°
2026-05-01 15:04 36.02969 137.81201 33962 ft 379 kts 215°
2026-05-01 15:05 36.00933 137.79186 33519 ft 377 kts 215°
2026-05-01 15:05 35.98821 137.77272 32954 ft 374 kts 212°
2026-05-01 15:05 35.96682 137.75456 32451 ft 371 kts 212°
2026-05-01 15:05 35.94560 137.73667 31948 ft 366 kts 212°
2026-05-01 15:06 35.92499 137.71946 31561 ft 359 kts 213°
2026-05-01 15:06 35.90465 137.70167 31109 ft 356 kts 213°
2026-05-01 15:06 35.88461 137.68410 30752 ft 349 kts 213°
2026-05-01 15:06 35.86488 137.66700 30337 ft 344 kts 212°
2026-05-01 15:07 35.84544 137.65030 30007 ft 337 kts 213°
2026-05-01 15:07 35.82659 137.63399 29565 ft 335 kts 213°
2026-05-01 15:07 35.80761 137.61755 29057 ft 328 kts 213°
2026-05-01 15:07 35.78917 137.60154 28617 ft 321 kts 213°
2026-05-01 15:08 35.77103 137.58591 28226 ft 317 kts 212°
2026-05-01 15:08 35.75306 137.57045 27808 ft 312 kts 212°
2026-05-01 15:08 35.73528 137.55517 27349 ft 309 kts 212°
2026-05-01 15:08 35.71776 137.54013 26946 ft 306 kts 212°
2026-05-01 15:09 35.70023 137.52507 26482 ft 306 kts 212°
2026-05-01 15:09 35.68294 137.51021 25991 ft 305 kts 213°
2026-05-01 15:09 35.66533 137.49497 25533 ft 314 kts 213°
2026-05-01 15:09 35.64721 137.47935 25128 ft 319 kts 213°
2026-05-01 15:10 35.62905 137.46381 24690 ft 318 kts 213°
2026-05-01 15:10 35.59311 137.43290 23858 ft 312 kts 213°
2026-05-01 15:10 35.57540 137.41764 23460 ft 308 kts 213°
2026-05-01 15:11 35.55792 137.40260 22996 ft 306 kts 213°
2026-05-01 15:11 35.52307 137.37279 22020 ft 306 kts 213°
2026-05-01 15:11 35.50576 137.35796 21560 ft 300 kts 213°
2026-05-01 15:12 35.48885 137.34337 21205 ft 296 kts 213°
2026-05-01 15:12 35.45523 137.31469 20451 ft 292 kts 213°
2026-05-01 15:12 35.43867 137.30044 20067 ft 289 kts 214°
2026-05-01 15:13 35.38844 137.25998 18927 ft 296 kts 202°
2026-05-01 15:14 35.34725 137.24934 18167 ft 307 kts 192°
2026-05-01 15:14 35.32594 137.24575 17706 ft 310 kts 192°
2026-05-01 15:14 35.28316 137.23865 16818 ft 308 kts 192°
2026-05-01 15:15 35.24081 137.23139 15876 ft 307 kts 191°
2026-05-01 15:15 35.19848 137.22395 14944 ft 307 kts 191°
2026-05-01 15:16 35.15644 137.21650 14135 ft 303 kts 192°
2026-05-01 15:16 35.11478 137.20911 13368 ft 301 kts 192°
2026-05-01 15:17 35.07343 137.20179 12543 ft 298 kts 192°
2026-05-01 15:18 35.01232 137.19095 11587 ft 294 kts 192°
2026-05-01 15:18 34.99201 137.18735 11327 ft 293 kts 192°
2026-05-01 15:19 34.93227 137.17678 10469 ft 283 kts 192°
2026-05-01 15:19 34.89444 137.17012 10205 ft 266 kts 193°
2026-05-01 15:19 34.87634 137.16693 10089 ft 258 kts 193°
2026-05-01 15:20 34.84170 137.16047 9674 ft 248 kts 198°
2026-05-01 15:20 34.82564 137.15350 9383 ft 243 kts 206°
2026-05-01 15:20 34.81021 137.14534 9109 ft 240 kts 207°
2026-05-01 15:21 34.79498 137.13716 8822 ft 239 kts 207°
2026-05-01 15:21 34.77971 137.12899 8543 ft 238 kts 207°
2026-05-01 15:21 34.76452 137.12104 8283 ft 236 kts 207°
2026-05-01 15:21 34.74966 137.11337 8026 ft 234 kts 207°
2026-05-01 15:22 34.71984 137.09807 7556 ft 233 kts 207°
2026-05-01 15:22 34.70474 137.09033 7312 ft 239 kts 207°
2026-05-01 15:22 34.68948 137.08175 7048 ft 243 kts 217°
2026-05-01 15:23 34.67757 137.06744 6798 ft 240 kts 234°
2026-05-01 15:23 34.66749 137.05140 6526 ft 238 kts 234°
2026-05-01 15:23 34.65747 137.03545 6255 ft 237 kts 234°
2026-05-01 15:23 34.64745 137.01956 5983 ft 236 kts 234°
2026-05-01 15:24 34.63756 137.00395 5698 ft 235 kts 234°
2026-05-01 15:24 34.62764 136.98836 5561 ft 228 kts 234°
2026-05-01 15:24 34.61807 136.97336 5436 ft 221 kts 235°
2026-05-01 15:24 34.60883 136.95887 5341 ft 213 kts 235°
2026-05-01 15:25 34.60182 136.94361 5239 ft 202 kts 254°
2026-05-01 15:25 34.59900 136.92732 5172 ft 193 kts 258°
2026-05-01 15:25 34.59649 136.91174 5100 ft 190 kts 258°
2026-05-01 15:25 34.59406 136.89575 4908 ft 195 kts 264°
2026-05-01 15:26 34.59681 136.87972 4707 ft 200 kts 295°
2026-05-01 15:26 34.60770 136.86877 4506 ft 215 kts 333°
2026-05-01 15:26 34.62207 136.86379 4330 ft 216 kts 335°
2026-05-01 15:26 34.63670 136.85926 4078 ft 218 kts 336°
2026-05-01 15:27 34.65162 136.85533 3791 ft 221 kts 339°
2026-05-01 15:27 34.66673 136.85165 3476 ft 220 kts 340°
2026-05-01 15:27 34.68155 136.84809 3164 ft 218 kts 340°
2026-05-01 15:28 34.71046 136.84115 2580 ft 205 kts 339°
2026-05-01 15:28 34.72421 136.83784 2313 ft 195 kts 339°
2026-05-01 15:28 34.73708 136.83474 2059 ft 181 kts 338°
2026-05-01 15:29 34.75971 136.82928 1655 ft 152 kts 335°
2026-05-01 15:29 34.77003 136.82674 1414 ft 149 kts 337°
2026-05-01 15:29 34.79025 136.82177 925 ft 148 kts 340°
2026-05-01 15:30 34.80738 136.81784 720 ft 149 kts 338°
2026-05-01 15:31 34.85128 136.80720 27 ft 140 kts 341°
2026-05-01 15:31 34.86199 136.80518 28 ft 30 kts 16°
2026-05-01 15:32 34.86289 136.80552 26 ft 0 kts 21°
2026-05-01 15:33 34.86346 136.80616 27 ft 7 kts 85°
2026-05-01 15:34 34.86174 136.80797 27 ft 14 kts 30°